Flag for U.S.A. Weather past 2 weeks in Washington DC, District of Columbia, U.S.A.

Now
35 °F

Passing clouds.


Feels Like: 22 °F
Forecast: 33 / 49 °F
Wind: 28 mph from North

Location: Reagan National Airport


UV Index: 5 (Moderate)

Visibility: 10 mi


Pressure: 30.14 "Hg

Humidity: 46%

Dew point: 16 °F

Location of Washington DCLocation

Historic Weather in Washington DC

°F

Washington DC temperature yesterday

Maximum temperature yesterday: 69 °F (at 3:52 AM)
Minimum temperature yesterday: 37 °F (at 8:55 PM)
Average temperature yesterday: 57 °F

Past Weeks' High & Low Weather Summary

 TemperatureHumidityPressure
High85 °F (Apr 13, 3:52 PM)94% (Apr 7, 4:54 PM)30.28 "Hg (Apr 7, 4:54 PM)
Low36 °F (Apr 16, 1:52 AM)14% (Apr 6, 3:52 PM)29.49 "Hg (Apr 8, 6:52 AM)
Average59 °F56%29.97 "Hg
* Reported Apr 1 1:52 AM — Apr 16 1:52 AM, Washington DC, Weather by CustomWeather, © 2014

Note: Actual official high and low records may vary slightly from our data, if they occured in-between our weather recording intervals... More about our weather records

Advertising

Historic Weather Conditions — Data for Previous 24 hours

 ConditionsComfort  
Time TempWeatherWind HumidityBarometerVisibility
1:52 AM
Apr 16
36 °FPassing clouds.18 mph52%30.12 "Hg10 mi
12:52 AM38 °FPassing clouds.18 mph53%30.09 "Hg10 mi
11:52 PM
Apr 15
39 °FMostly cloudy.23 mph55%30.05 "Hg10 mi
10:52 PM40 °FOvercast.21 mph65%30.01 "Hg10 mi
9:52 PM39 °FOvercast.13 mph82%29.98 "Hg10 mi
8:55 PM37 °FLight rain. Mostly cloudy.14 mph87%29.95 "Hg5 mi
7:52 PM41 °FSleet. Mostly cloudy.16 mph82%29.91 "Hg9 mi
6:52 PM44 °FLight rain. More clouds than sun.20 mph76%29.82 "Hg10 mi
5:52 PM44 °FRain. More clouds than sun.24 mph79%29.79 "Hg4 mi
5:00 PM46 °FLight rain. More clouds than sun.26 mph76%29.76 "Hg7 mi
3:52 PM49 °FLight rain. More clouds than sun.17 mph80%29.70 "Hg10 mi
2:52 PM52 °FLight rain. More clouds than sun.15 mph75%29.66 "Hg9 mi
2:04 PM57 °FHeavy rain. Mostly cloudy.23 mph82%29.61 "Hg1 mi
1:57 PM59 °FRain. Mostly cloudy.18 mph82%29.59 "Hg2 mi
12:52 PM69 °FMostly cloudy.14 mph84%29.55 "Hg10 mi
11:52 AM69 °FMostly cloudy.13 mph87%29.57 "Hg10 mi
10:52 AM66 °FLight rain. Broken clouds.10 mph87%29.57 "Hg7 mi
9:56 AM64 °FLight rain. Fog.5 mph88%29.61 "Hg5 mi
8:59 AM66 °FRain. Mostly cloudy.13 mph83%29.63 "Hg2 mi
7:52 AM69 °FLight rain. Mostly cloudy.17 mph81%29.61 "Hg5 mi
6:52 AM69 °FLight rain. Mostly cloudy.15 mph79%29.64 "Hg10 mi
5:52 AM68 °FLight rain. Mostly cloudy.12 mph78%29.67 "Hg10 mi
4:52 AM68 °FOvercast.12 mph76%29.69 "Hg10 mi
3:52 AM69 °FOvercast.12 mph70%29.72 "Hg10 mi
Weather by CustomWeather, © 2014

See weather overview